Regional Weather Roundup
Issued by NWS Grand Forks, ND

Home | Current Version | Previous Version | Text Only | Print | Product List | Glossary On
Versions: 1 2 3 4 5 6 7 8 9 10 11 12 13 14 15 16 17 18 19 20 21 22 23 24 25 26 27 28 29 30 31 32 33 34 35 36 37 38 39 40 41 42 43 44 45 46 47 48 49 50
000
ASUS43 KFGF 060410
RWRFGF
PRAIRIE TO PINES  WEATHER ROUNDUP
NATIONAL WEATHER SERVICE EASTERN NORTH DAKOTA/GRAND FORKS ND
1100 PM CDT TUE MAY 05 2015

 **SATELLITE DATA USED TO AUGMENT SKY COVER AT AUTOMATED STATIONS**
 *****  WEATHER ACROSS EASTERN NORTH DAKOTA  *****

CITY           SKY/WX    TMP DP  RH WIND       PRES   REMARKS
GRAND FORKS    PTCLDY    66  51  58 S16       29.96S
GRAND FRKS AFB CLEAR     66  51  57 SE16      29.96R
GRAND FRKS NWS   N/A     63 N/A N/A S10         N/A
DEVILS LAKE    CLEAR     64  48  55 SE15      29.91S
FARGO          PTCLDY    66  53  63 SE15      29.99R
WAHPETON ARPT  CLOUDY    63  50  63 SE18G28   30.01S
$$

 ***** WEATHER ACROSS CENTRAL AND WESTERN NORTH DAKOTA  *****

CITY           SKY/WX    TMP DP  RH WIND       PRES   REMARKS
BISMARCK       MOCLDY    58  49  72 S8        29.86R
MINOT          CLEAR     60  36  40 SE6       29.83R
JAMESTOWN      MOCLDY    64  53  67 SE16      29.92S
MINOT AFB      CLEAR     56  35  46 SE9       29.81S
GARRISON         N/A     59  45  59 SE8       29.83S
WILLISTON      CLEAR     65  49  56 S6        29.78R
DICKINSON      MOCLDY    57  50  77 SE12      29.79S
HETTINGER      CLOUDY    59  51  75 SE10      29.83R
$$

 *****  OTHER AIRPORT OBSERVATIONS IN OUR AREA  *****

CITY           SKY/WX    TMP DP  RH WIND       PRES   REMARKS
WALHALLA       FAIR      63  28  27 SE9       29.94S
GRAFTON AIRPOR FAIR      63  37  39 SE12      29.96S
VALLEY CITY AR FAIR      63  57  82 SE16      29.96S
CANDO          FAIR      61  36  39 SE14      29.91S
CAVALIER APRT  FAIR      66  30  26 SE10      29.94S
GWINNER        MOCLDY    63  55  77 SE21      29.98S
SHEYENNE NWR     N/A     62  54  74 SE12      29.95S
ROLLA          NOT AVBL
 ***** THE ABOVE OBSERVATIONS ARE NON NWS ARE NOT QUALITY
       CONTROLLED AND MAY MIS-REPORT RAIN FOR SNOW...
$$

  *****  WEATHER ACROSS NORTHERN MINNESOTA  *****

CITY           SKY/WX    TMP DP  RH WIND       PRES   REMARKS
FLAG ISLAND    PTCLDY    61  32  33 E6        30.03S
WARROAD        MOCLDY    66  37  34 SE13      30.03F
ROSEAU         PTCLDY    66  30  26 SE12      30.02S
HALLOCK        PTCLDY    64  19  17 SE13      29.96S
THF RVR FALLS  PTCLDY    63  37  39 SE8       30.02R
BAUDETTE       PTCLDY    58  35  42 SE6       30.06S
WASKISH        PTCLDY    57  37  47 CALM      30.07S
CROOKSTON      PTCLDY    66  52  59 S17       30.00S
STEPHEN NDAWN    N/A     64  30  27 SE10        N/A
GREENBUSH NDAW   N/A     63  32  31 SE12        N/A
$$
  *****  WEATHER ACROSS CENTRAL AND WEST MINNESOTA  *****

CITY           SKY/WX    TMP DP  RH WIND       PRES   REMARKS
FOSSTON        MOCLDY    64  41  42 SE8       30.03S
BEMIDJI        CLOUDY    64  40  41 SE10      30.06S
PARK RAPIDS    CLOUDY    64  43  46 SE10      30.06S
ELBOW LAKE     CLOUDY    61  53  75 SE17      30.03F
WADENA         CLOUDY    61  48  63 SE12      30.06F
DETROIT LAKES  MOCLDY    63  52  67 S10       30.05S
MOORHEAD       PTCLDY    64  54  68 S14       30.01R
FERGUS FALLS   CLOUDY    63  54  72 SE14G22   30.03F
MORRIS MN      CLOUDY    59  54  82 SE18      30.04S
STAPLES        CLOUDY    63  46  55 SE10      30.08S
$$
  *****  WEATHER ELSEWHERE ACROSS MINNESOTA  *****

CITY           SKY/WX    TMP DP  RH WIND       PRES   REMARKS
DULUTH         CLEAR     52  27  38 E8        30.17S
INTRNTL FALLS  CLEAR     52  32  46 SE5       30.09R
ELY            CLEAR     52  25  35 SE6       30.17S
CLOQUET        PTCLDY    48  28  46 E5        30.16S
WHEATON        CLOUDY    57  52  82 SE17      30.03S
BRAINERD       CLOUDY    62  39  42 SE10      30.10F
HIBBING        CLEAR     49  25  39 SE7       30.15R
ALEXANDRIA     CLOUDY    60  52  74 SE14G24   30.08S
SAINT CLOUD    CLOUDY    59  52  77 SE14      30.11R
MINNEAPOLIS    CLOUDY    57  53  86 SE14      30.13F
$$

  *****  WEATHER ACROSS SOUTH DAKOTA  *****

CITY           SKY/WX    TMP DP  RH WIND       PRES   REMARKS
SIOUX FALLS    CLOUDY    62  59  90 SE16      29.99S
BROOKINGS      CLOUDY    61  57  88 SE16      30.02S
WATERTOWN      CLOUDY    59  55  87 SE12G21   30.00S
HURON          MOCLDY    62  57  83 SE9       29.93F
SISSETON         N/A     61  55  81 S17       29.99S
ABERDEEN       CLOUDY    63  57  81 SE14      29.95R
MITCHELL       CLOUDY    63  59  87 SE13      29.94S
PIERRE         CLOUDY    58  57  97 SE8       29.89R
MOBRIDGE       CLOUDY    60  54  80 SE10      29.87R
RAPID CITY     CLOUDY    59  52  77 SE12      29.83S
$$

  *****  SOME WEATHER IN NEARBY STATES *****

CITY           SKY/WX    TMP DP  RH WIND       PRES   REMARKS
GLASGOW MT     PTCLDY    68  48  48 SE18      29.64R
GREAT FALLS MT CLOUDY    54  44  69 CALM      29.78R
CHEYENNE WY    LGT RAIN  48  46  93 E3        29.83F
SCOTTSBLUFF NE LGT RAIN  53  32  44 E17       29.82F
OMAHA NE       CLOUDY    71  58  63 SE18G29   29.98S
DES MOINES IA  CLOUDY    69  62  78 E10       30.06R
DAVENPORT IA   CLOUDY    59  56  89 E13       30.16S FOG
CHICAGO IL     FOG       48  47  96 NE7       30.21F VSB 3/4
EAU CLAIRE WI  CLOUDY    55  46  71 SE10G23   30.18F
LA CROSSE WI   CLOUDY    56  53  90 E3        30.18F
$$

  *****  SOME NATIONAL WEATHER *****

CITY           SKY/WX    TMP DP  RH WIND       PRES   REMARKS
LA GUARDIA NY  CLOUDY    66  53  63 E6        30.17S
RALEIGH NC     MOCLDY    66  51  58 S5        30.30R
ATLANTA GA     PTCLDY    69  51  52 E5        30.25R
NEW ORLEANS LA PTCLDY    70  62  76 SE6       30.12S
OKLAHOMA CITY  TSTM      67  64  90 SE17G25   29.89F FOG
ALBUQUERQUE NM MOCLDY    53  47  79 S6        29.96R
SALT LAKE CITY CLOUDY    59  49  69 NE9       29.83R
LOS ANGELES CA PTCLDY    58  52  80 W8        29.96R
BOISE ID       CLEAR     59  24  26 NW16      29.83R
SEATTLE WA     LGT RAIN  47  44  90 E10       30.10S
$$

*** WEATHER ACROSS MANITOBA...SASKATCHEWAN AND ONTARIO ***
                ***ONTARIO***

CITY           SKY/WX    TMP DP  RH WIND       PRES   REMARKS
GERALDTON      CLEAR     48  28  46 SW5       30.20F
THUNDER BAY    PTCLDY    46  30  53 NE5       30.23S
SIOUX LOOKOUT  CLEAR     50  30  46 S6        30.11R
TORONTO        MOCLDY    52  34  50 W2        30.29F
BIG TROUT LK   PTCLDY    34  25  69 SW2       30.19R
PICKLE LAKE    NOT AVBL
DRYDEN         CLEAR     59  28  31 S12       30.09S
KENORA         MOCLDY    59  28  31 SE6       30.06F
$$
                *** MANITOBA***

CITY           SKY/WX    TMP DP  RH WIND       PRES   REMARKS
BRANDON        MOCLDY    61  30  31 SE9       29.89S
DAUPHIN        CLEAR     61  34  36 S7        29.87S
ISLAND LAKE    MOCLDY    37  34  87 NE6       30.15R
PILOT MOUND      N/A     59  27  29 SE12        N/A
THE PAS        CLOUDY    39  28  65 E9G21     29.99F
THOMPSON       CLEAR     39  19  45 E6        30.15R
WINNIPEG       CLEAR     59  25  27 SE10      29.97S
LYNN LAKE      MOCLDY    37  19  48 E7        30.13R
CHURCHILL      MOCLDY    19  12  73 NW16      30.31R WCI   5
GILLAM         CLEAR     34  19  55 E7        30.22R
$$
                ***SASKATCHEWAN***

CITY           SKY/WX    TMP DP  RH WIND       PRES   REMARKS
ESTEVAN        PTCLDY    63  46  55 SE10      29.79R
KINDERSLEY     LGT RAIN  61  41  48 S23G31    29.69R
LLOYDMINSTER   PTCLDY    52  39  62 E21       29.69R
PRINCE ALBERT  CLOUDY    46  37  71 E15G25    29.85S
REGINA         PTCLDY    66  48  52 SE18      29.72R
YORKTON        CLEAR     64  39  39 SE13G21   29.80R
N. BATTLEFORD  CLEAR     54  39  58 E22G30    29.71S
LA RONGE       CLOUDY    45  25  45 E9G17     29.97R
SASKATOON      MOCLDY    61  50  67 SE12      29.69F
SWIFT CURRENT  CLOUDY    59  45  58 N7        29.70S HAZE
$$
NOTE: THESE ARE AUTOMATED STATIONS WITH LIMITED QUALITY CONTROL
      "FAIR" INDICATES FEW OR NO CLOUDS BELOW 12,000 FEET WITH NO
      SIGNIFICANT WEATHER AND/OR OBSTRUCTIONS TO VISIBILITY.
      SKY/WX - SKY CONDITION AND SIGNIFICANT WEATHER.
      TMP - AIR TEMPERATURE.    DP   - DEWPOINT TEMPERATURE.
      RH  - RELATIVE HUMIDITY.  PRES - PRESSURE.
      HX  - HEAT INDEX.         WCI  - WIND CHILL INDEX.
$


USA.gov is the U.S. government's official web portal to all federal, state and local government web resources and services.